• In Schweiz
  • Länderverzeichnis
  • Für 7 Tage
  • Wassertemperatur
  • Satellitenkarten
  • Wetterkarte
  • Widgets
  • user-avatar
    Anmelden

    Stündliche Wetter Punta Cana

    Heute, 17 Oktober, Dienstag

    Zeit Temperatur Niederschläge Wind Luftdruck Luftfeuchtigkeit
    00:00 +29°C° 0,1 mm 6 m/S 761 mmHg 86%
    01:00 +29°C° 0,1 mm 6 m/S 761 mmHg 87%
    02:00 +29°C° 0,2 mm 6 m/S 761 mmHg 87%
    03:00 +29°C° 0,2 mm 6 m/S 761 mmHg 88%
    04:00 +28°C° 0,2 mm 5 m/S 760 mmHg 88%
    05:00 +29°C° 0 mm 6 m/S 761 mmHg 86%
    06:00 +29°C° 0 mm 6 m/S 761 mmHg 84%
    07:00 +30°C° 0 mm 6 m/S 762 mmHg 83%
    08:00 +32°C° 0 mm 6 m/S 762 mmHg 79%
    09:00 +33°C° 0 mm 6 m/S 762 mmHg 75%
    10:00 +33°C° 0 mm 5 m/S 763 mmHg 71%
    11:00 +33°C° 0,2 mm 5 m/S 762 mmHg 71%
    12:00 +34°C° 0,2 mm 5 m/S 761 mmHg 71%
    13:00 +34°C° 0,2 mm 5 m/S 761 mmHg 71%
    14:00 +33°C° 0,4 mm 5 m/S 761 mmHg 75%
    15:00 +32°C° 0,4 mm 4 m/S 760 mmHg 79%
    16:00 +30°C° 0,4 mm 4 m/S 760 mmHg 83%
    17:00 +30°C° 0,2 mm 4 m/S 760 mmHg 84%
    18:00 +29°C° 0,2 mm 4 m/S 760 mmHg 86%
    19:00 +29°C° 0,2 mm 4 m/S 761 mmHg 88%
    20:00 +29°C° 0,3 mm 4 m/S 761 mmHg 88%
    21:00 +29°C° 0,3 mm 4 m/S 761 mmHg 89%
    22:00 +29°C° 0,3 mm 5 m/S 761 mmHg 89%
    23:00 +28°C° 0,5 mm 4 m/S 761 mmHg 90%

    Morgen, 18 Oktober, Mittwoch

    Zeit Temperatur Niederschläge Wind Luftdruck Luftfeuchtigkeit
    00:00 +28°C° 0,5 mm 4 m/S 761 mmHg 90%
    01:00 +28°C° 0,5 mm 4 m/S 761 mmHg 91%
    02:00 +28°C° 0,6 mm 4 m/S 761 mmHg 90%
    03:00 +28°C° 0,6 mm 4 m/S 760 mmHg 90%
    04:00 +28°C° 0,6 mm 4 m/S 760 mmHg 90%
    05:00 +29°C° 0,9 mm 4 m/S 761 mmHg 87%
    06:00 +29°C° 0,9 mm 4 m/S 761 mmHg 84%
    07:00 +30°C° 0,9 mm 4 m/S 762 mmHg 81%
    08:00 +32°C° 1,1 mm 5 m/S 762 mmHg 76%
    09:00 +33°C° 1,1 mm 5 m/S 762 mmHg 72%
    10:00 +34°C° 1,1 mm 6 m/S 762 mmHg 67%
    11:00 +33°C° 0,8 mm 6 m/S 762 mmHg 70%
    12:00 +33°C° 0,8 mm 6 m/S 761 mmHg 72%
    13:00 +33°C° 0,8 mm 6 m/S 760 mmHg 75%
    14:00 +32°C° 0,7 mm 6 m/S 760 mmHg 77%
    15:00 +32°C° 0,7 mm 6 m/S 760 mmHg 79%
    16:00 +30°C° 0,7 mm 6 m/S 760 mmHg 81%
    17:00 +30°C° 0,1 mm 6 m/S 760 mmHg 82%
    18:00 +29°C° 0,1 mm 6 m/S 761 mmHg 82%
    19:00 +29°C° 0,1 mm 6 m/S 761 mmHg 83%
    20:00 +29°C° 0,2 mm 6 m/S 761 mmHg 83%
    21:00 +29°C° 0,2 mm 6 m/S 762 mmHg 83%
    22:00 +29°C° 0,2 mm 5 m/S 762 mmHg 83%
    23:00 +29°C° 0,2 mm 5 m/S 761 mmHg 84%

    übermorgen, 19 Oktober, Donnerstag

    Zeit Temperatur Niederschläge Wind Luftdruck Luftfeuchtigkeit
    00:00 +29°C° 0,2 mm 6 m/S 761 mmHg 84%
    01:00 +29°C° 0,2 mm 6 m/S 761 mmHg 85%
    02:00 +29°C° 0,2 mm 6 m/S 761 mmHg 85%
    03:00 +28°C° 0,2 mm 6 m/S 760 mmHg 85%
    04:00 +28°C° 0,2 mm 6 m/S 760 mmHg 85%
    05:00 +29°C° 0,2 mm 6 m/S 761 mmHg 84%
    06:00 +29°C° 0,2 mm 6 m/S 761 mmHg 83%
    07:00 +29°C° 0,2 mm 7 m/S 762 mmHg 83%
    08:00 +30°C° 0,2 mm 7 m/S 762 mmHg 79%
    09:00 +32°C° 0,2 mm 7 m/S 762 mmHg 75%
    10:00 +33°C° 0,2 mm 7 m/S 762 mmHg 71%
    11:00 +33°C° 0,3 mm 7 m/S 762 mmHg 71%
    12:00 +33°C° 0,3 mm 6 m/S 761 mmHg 71%
    13:00 +33°C° 0,3 mm 6 m/S 761 mmHg 71%
    14:00 +33°C° 0,1 mm 6 m/S 760 mmHg 73%
    15:00 +32°C° 0,1 mm 6 m/S 760 mmHg 74%
    16:00 +32°C° 0,1 mm 6 m/S 760 mmHg 76%
    17:00 +30°C° 0 mm 6 m/S 760 mmHg 77%
    18:00 +30°C° 0 mm 6 m/S 761 mmHg 78%
    19:00 +29°C° 0 mm 6 m/S 761 mmHg 79%
    20:00 +29°C° 0 mm 6 m/S 761 mmHg 79%
    21:00 +29°C° 0 mm 7 m/S 762 mmHg 78%
    22:00 +29°C° 0 mm 7 m/S 762 mmHg 78%
    23:00 +29°C° 0 mm 7 m/S 762 mmHg 79%

    20 Oktober, Freitag

    Zeit Temperatur Niederschläge Wind Luftdruck Luftfeuchtigkeit
    00:00 +28°C° 0 mm 7 m/S 761 mmHg 80%
    01:00 +28°C° 0 mm 6 m/S 761 mmHg 80%
    02:00 +28°C° 0 mm 6 m/S 761 mmHg 81%
    03:00 +28°C° 0 mm 6 m/S 761 mmHg 81%
    04:00 +28°C° 0 mm 6 m/S 761 mmHg 81%
    05:00 +28°C° 0 mm 7 m/S 761 mmHg 80%
    06:00 +29°C° 0 mm 7 m/S 761 mmHg 79%
    07:00 +29°C° 0 mm 7 m/S 762 mmHg 78%
    08:00 +30°C° 0 mm 7 m/S 762 mmHg 74%
    09:00 +32°C° 0 mm 7 m/S 762 mmHg 70%
    10:00 +33°C° 0 mm 7 m/S 762 mmHg 66%
    11:00 +33°C° 0 mm 6 m/S 762 mmHg 65%
    12:00 +33°C° 0 mm 6 m/S 761 mmHg 64%
    13:00 +34°C° 0 mm 5 m/S 760 mmHg 63%
    14:00 +33°C° 0 mm 5 m/S 760 mmHg 66%
    15:00 +32°C° 0 mm 5 m/S 760 mmHg 69%
    16:00 +32°C° 0 mm 5 m/S 760 mmHg 72%
    17:00 +30°C° 0,2 mm 5 m/S 760 mmHg 75%
    18:00 +29°C° 0,2 mm 5 m/S 761 mmHg 78%
    19:00 +28°C° 0,2 mm 5 m/S 761 mmHg 82%
    20:00 +28°C° 0,1 mm 6 m/S 762 mmHg 82%
    21:00 +28°C° 0,1 mm 6 m/S 762 mmHg 83%
    22:00 +28°C° 0,1 mm 6 m/S 762 mmHg 84%
    23:00 +28°C° 0 mm 6 m/S 762 mmHg 83%

    21 Oktober, Samstag

    Zeit Temperatur Niederschläge Wind Luftdruck Luftfeuchtigkeit
    00:00 +27°C° 0 mm 6 m/S 761 mmHg 83%
    01:00 +27°C° 0 mm 6 m/S 761 mmHg 82%
    02:00 +27°C° 0 mm 6 m/S 761 mmHg 82%
    03:00 +27°C° 0 mm 6 m/S 761 mmHg 82%
    04:00 +27°C° 0 mm 5 m/S 761 mmHg 82%
    05:00 +27°C° 0 mm 5 m/S 761 mmHg 80%
    06:00 +28°C° 0 mm 6 m/S 762 mmHg 78%
    07:00 +29°C° 0 mm 6 m/S 762 mmHg 76%
    08:00 +29°C° 0 mm 6 m/S 762 mmHg 71%
    09:00 +30°C° 0 mm 6 m/S 763 mmHg 66%
    10:00 +32°C° 0 mm 6 m/S 763 mmHg 61%
    11:00 +33°C° 0 mm 6 m/S 762 mmHg 60%
    12:00 +33°C° 0 mm 5 m/S 761 mmHg 59%
    13:00 +33°C° 0 mm 5 m/S 761 mmHg 58%
    14:00 +33°C° 0 mm 5 m/S 761 mmHg 61%
    15:00 +32°C° 0 mm 5 m/S 761 mmHg 65%
    16:00 +30°C° 0 mm 5 m/S 761 mmHg 68%
    17:00 +29°C° 0,1 mm 5 m/S 761 mmHg 72%
    18:00 +28°C° 0,1 mm 5 m/S 762 mmHg 76%
    19:00 +27°C° 0,1 mm 5 m/S 762 mmHg 80%
    20:00 +27°C° 0,1 mm 6 m/S 762 mmHg 81%
    21:00 +27°C° 0,1 mm 6 m/S 763 mmHg 81%
    22:00 +27°C° 0,1 mm 6 m/S 763 mmHg 82%
    23:00 +27°C° 0 mm 6 m/S 762 mmHg 81%

    22 Oktober, Sonntag

    Zeit Temperatur Niederschläge Wind Luftdruck Luftfeuchtigkeit
    00:00 +27°C° 0 mm 6 m/S 762 mmHg 80%
    01:00 +27°C° 0 mm 6 m/S 762 mmHg 79%
    02:00 +27°C° 0 mm 6 m/S 762 mmHg 80%
    03:00 +27°C° 0 mm 6 m/S 762 mmHg 80%
    04:00 +27°C° 0 mm 6 m/S 762 mmHg 80%
    05:00 +27°C° 0 mm 6 m/S 762 mmHg 79%
    06:00 +28°C° 0 mm 6 m/S 762 mmHg 78%
    07:00 +29°C° 0 mm 6 m/S 763 mmHg 76%
    08:00 +30°C° 0 mm 6 m/S 763 mmHg 72%
    09:00 +32°C° 0 mm 6 m/S 763 mmHg 67%
    10:00 +33°C° 0 mm 6 m/S 763 mmHg 62%
    11:00 +33°C° 0 mm 6 m/S 762 mmHg 62%
    12:00 +33°C° 0 mm 6 m/S 762 mmHg 61%
    13:00 +33°C° 0 mm 5 m/S 761 mmHg 60%
    14:00 +33°C° 0 mm 5 m/S 761 mmHg 64%
    15:00 +32°C° 0 mm 5 m/S 761 mmHg 68%
    16:00 +30°C° 0 mm 5 m/S 761 mmHg 72%
    17:00 +29°C° 0,1 mm 5 m/S 761 mmHg 76%
    18:00 +29°C° 0,1 mm 5 m/S 762 mmHg 80%
    19:00 +28°C° 0,1 mm 5 m/S 762 mmHg 84%
    20:00 +28°C° 0,3 mm 6 m/S 762 mmHg 84%
    21:00 +28°C° 0,3 mm 6 m/S 762 mmHg 84%
    22:00 +28°C° 0,3 mm 6 m/S 762 mmHg 84%
    23:00 +28°C° 0,2 mm 6 m/S 762 mmHg 84%
    Mehr zeigen